RH
75 76 76 77 78 78 78 78 80 79 80 79 80 80 81 81 80 80 80 79 76 75 78 78 79 84 65 41 37 26 50 39 40 46 50 56 73 82 86 83 81 84 67 51 50 54 57
75 76 77 77 78 79 79 79 80 82 81 81 81 82 82 82 81 80 79 77 76 76 80 78 79 85 60 37 26 31 32 35 39 47 52 56 58 65 82 84 86 70 62 60 58 58 51
76 76 77 78 79 80 80 80 81 83 82 82 82 83 83 81 80 79 77 76 77 80 79 80 79 74 62 36 34 32 33 37 40 45 50 50 54 70 74 79 71 70 80 61 53 55 53
76 77 78 79 79 80 79 81 82 83 83 83 82 82 83 82 82 81 81 81 84 86 84 80 75 74 50 37 42 32 34 38 39 41 47 47 58 67 76 68 57 65 68 68 46 50 47
74 75 78 79 79 79 77 79 82 83 82 83 83 83 83 84 84 86 87 87 87 86 77 75 73 57 36 35 31 36 42 39 42 45 49 42 56 68 56 70 73 66 78 63 54 44 48
73 74 78 79 80 79 76 77 80 80 80 80 79 81 84 85 87 87 85 81 78 66 67 61 49 39 28 27 36 37 41 42 46 45 46 58 58 61 64 71 77 74 77 61 58 49 47
74 73 76 79 78 78 76 75 77 78 78 78 79 84 87 88 87 87 72 45 44 33 44 40 37 34 32 35 42 40 42 40 45 44 53 55 58 67 60 68 61 66 70 63 51 48 53
77 74 75 79 78 78 75 75 76 77 79 78 80 84 86 87 86 81 61 65 73 70 63 52 49 40 38 44 43 40 35 41 49 57 53 59 52 47 53 57 55 58 65 63 56 50 59
79 76 75 78 78 78 76 77 77 78 79 79 81 84 86 86 83 68 66 68 64 69 75 50 46 42 34 43 47 43 40 51 58 49 57 70 50 46 49 51 57 61 70 66 67 60 53
82 79 77 77 78 78 78 78 78 78 81 84 83 83 85 83 55 72 69 67 68 68 59 38 38 37 37 48 36 42 46 50 42 48 56 56 50 48 55 42 63 72 55 60 66 67 69
84 82 80 79 80 80 78 78 77 79 85 86 85 82 83 78 71 60 68 72 73 63 52 30 34 35 40 43 41 38 48 46 51 49 51 29 53 58 55 40 61 54 58 69 69 70 68
87 84 82 81 82 81 79 78 79 80 85 86 85 84 85 68 78 81 77 78 69 59 42 32 37 36 31 41 43 38 40 42 48 43 42 55 52 61 54 51 54 50 59 51 71 74 80
89 88 87 84 83 82 80 78 79 80 84 85 86 85 85 68 61 80 83 67 61 62 26 25 33 34 41 38 35 38 38 43 43 42 44 40 35 37 49 42 43 58 66 79 71 85 74
90 89 88 86 84 82 80 78 79 79 83 86 84 84 75 69 81 83 72 33 29 20 31 38 37 36 41 37 34 33 36 35 45 42 47 62 48 33 39 54 59 65 62 84 69 79 77
90 89 89 89 85 83 80 78 78 82 86 86 78 87 89 86 76 83 46 52 37 26 42 36 28 34 27 36 37 26 31 37 48 43 39 45 32 34 47 53 54 52 70 63 72 79 74
93 94 91 90 86 85 82 78 77 82 85 85 78 83 84 79 81 70 45 43 36 44 44 42 31 33 42 27 29 30 27 39 50 44 44 44 54 39 36 40 49 63 59 55 69 58 67
94 92 92 92 90 89 86 78 76 78 83 81 77 39 59 80 73 63 49 45 52 42 45 44 42 41 37 35 36 31 26 36 46 50 55 63 52 39 28 31 43 50 55 53 53 67 72
94 91 93 94 93 90 86 80 77 76 78 66 62 35 68 73 46 91 63 60 51 40 52 48 48 43 42 40 38 35 31 36 42 44 41 55 51 58 34 32 48 64 64 47 52 49 57
94 93 94 95 94 92 87 82 77 73 72 70 44 56 71 52 38 44 58 51 45 45 46 52 51 48 45 44 36 34 35 41 41 44 42 39 38 44 36 34 31 43 51 49 52 62 61
95 95 95 94 94 92 87 84 80 74 73 72 53 40 57 74 72 66 58 43 47 53 48 47 47 42 45 46 44 42 40 41 42 44 60 47 49 36 41 27 34 39 43 43 46 74 60
96 96 95 95 93 91 87 84 80 77 74 62 58 40 57 44 63 73 72 61 54 50 49 48 45 47 48 50 45 43 39 37 38 49 66 50 55 62 51 47 50 47 49 54 58 54 54
96 96 95 94 93 90 86 85 81 78 75 69 55 50 72 48 63 77 72 53 51 48 48 46 50 47 48 48 42 44 47 46 39 52 65 65 56 69 68 55 56 56 50 54 56 55 53
96 96 95 94 93 91 87 85 81 80 73 74 92 84 38 36 59 54 44 45 51 48 42 44 44 40 40 36 39 39 40 40 34 40 59 64 71 61 56 51 42 53 43 48 72 91 84
96 96 95 93 93 91 87 85 82 81 77 81 91 70 42 38 44 48 45 45 44 45 42 42 46 43 39 50 56 60 62 56 53 50 42 51 66 59 62 50 69 60 73 64 86 82 78
96 96 94 93 93 91 89 84 82 82 81 88 94 80 58 42 49 47 44 47 54 68 76 65 54 40 56 64 73 78 76 64 60 66 62 47 55 60 61 66 52 62 77 79 87 94 82
96 96 94 94 94 92 88 85 83 83 81 89 96 87 70 50 48 50 54 74 84 89 82 72 73 69 70 74 79 91 89 80 76 73 64 54 54 60 70 70 69 86 77 71 79 94 77
96 95 94 94 93 92 88 86 85 84 84 92 97 92 83 76 82 80 83 84 78 83 89 87 84 83 77 80 80 88 89 79 84 83 80 81 77 68 69 78 80 89 75 69 82 94 83
96 94 94 94 93 91 88 86 85 85 85 90 98 96 88 93 91 86 83 88 91 91 95 86 85 86 86 92 84 88 86 86 93 83 83 74 88 91 90 93 93 79 74 79 86 65 66
96 94 93 94 92 88 88 88 86 86 86 88 99 90 93 94 93 92 91 82 83 81 85 87 89 88 92 88 91 89 94 96 91 95 76 78 89 93 92 93 86 71 81 72 63 71 77
Wind_Speed
7 8 9 9 10 11 11 11 11 10 10 10 11 11 12 12 13 13 14 15 15 15 13 13 13 13 4 3 5 6 5 7 5 0 2 2 2 2 3 4 5 5 6 8 9 9 7
5 6 7 8 10 11 12 12 12 12 12 12 12 12 11 12 13 14 15 15 16 15 13 12 11 10 2 3 4 2 5 5 1 2 2 3 3 4 4 5 2 4 7 18 12 13 6
6 6 7 9 10 11 12 12 12 12 12 13 13 14 14 15 15 16 17 17 15 14 12 10 7 2 2 8 1 5 5 3 2 3 3 4 3 2 2 6 3 6 7 9 4 4 7
5 7 8 9 9 9 9 11 11 12 13 13 14 14 15 17 17 19 18 18 15 12 9 5 2 1 5 3 2 6 6 4 3 3 4 3 3 2 2 5 8 5 0 7 7 4 4
4 5 6 7 8 9 9 10 11 12 12 13 15 16 16 17 17 18 17 18 13 7 3 1 1 2 7 5 4 5 2 4 8 2 1 3 3 0 5 5 6 6 5 5 8 4 3
4 4 5 7 8 9 11 11 11 12 14 15 15 15 16 16 17 19 20 5 2 4 2 1 1 2 2 5 5 6 3 2 2 4 4 5 5 3 3 6 4 6 5 5 6 6 6
6 4 4 5 7 7 9 11 12 12 13 14 16 18 18 17 17 17 9 4 8 3 6 3 3 3 5 8 2 3 3 5 3 7 5 4 6 4 9 4 6 5 4 7 7 2 6
8 6 5 5 6 7 7 9 11 12 12 13 16 17 17 17 17 15 4 7 2 2 9 2 5 5 4 1 4 3 5 5 5 3 7 6 3 4 7 4 4 4 4 7 9 4 1
10 8 7 6 6 7 8 9 9 11 12 15 15 16 16 18 11 5 5 3 2 4 1 7 4 3 4 2 3 6 4 0 3 5 3 3 5 7 5 5 8 5 4 5 5 9 1
11 10 9 7 6 6 8 9 9 10 12 13 16 17 17 19 5 2 3 4 3 1 5 4 2 3 1 0 3 2 1 2 4 4 6 5 4 5 7 4 2 5 1 5 6 5 3
13 11 9 9 7 6 6 8 10 12 11 12 13 16 15 10 2 3 3 4 2 1 6 2 2 1 1 0 4 2 2 3 2 3 4 6 7 7 5 6 2 9 7 3 2 3 3
13 13 11 10 8 7 5 8 9 10 11 11 12 14 13 3 2 1 4 4 3 9 7 5 2 4 5 3 3 6 3 4 1 2 2 6 5 2 3 8 3 11 4 4 4 3 5
14 13 12 10 8 8 7 5 8 10 11 12 12 12 5 1 2 4 2 4 8 6 3 4 3 4 3 4 5 4 5 7 4 8 8 8 5 6 3 8 7 11 9 6 8 7 3
15 14 12 11 9 7 7 7 9 10 11 12 14 6 3 1 2 2 3 7 2 3 4 2 3 4 2 4 2 5 3 5 3 4 2 4 11 7 7 2 3 5 4 4 1 4 6
16 14 13 11 9 8 8 6 8 9 10 12 9 3 2 3 3 2 6 4 7 5 2 5 6 3 4 2 1 5 2 1 0 2 3 4 7 5 1 2 2 5 6 1 2 1 2
17 16 15 11 11 9 8 6 7 8 10 11 2 2 3 5 3 5 5 5 3 2 3 2 1 3 3 5 5 6 3 1 0 1 2 1 5 1 6 2 2 3 2 4 4 4 5
20 19 17 14 12 9 8 7 7 7 10 4 3 3 3 4 3 6 3 6 4 1 0 1 1 3 1 3 2 3 3 1 0 0 2 2 2 8 4 4 2 6 4 5 4 3 2
22 22 18 16 13 11 9 8 6 6 8 4 2 2 3 2 4 1 2 3 2 3 0 0 2 2 1 3 3 2 2 2 1 2 2 1 3 4 8 2 2 1 1 5 4 5 1
23 23 20 18 15 13 11 9 7 2 6 1 1 3 2 3 2 2 4 3 2 1 3 1 1 2 1 1 3 3 2 2 3 2 1 2 1 6 10 5 3 1 0 4 4 3 5
23 23 21 20 17 16 13 10 7 3 4 4 2 3 3 4 1 2 1 3 2 1 1 2 2 2 1 1 1 4 3 2 4 3 1 3 3 8 7 10 0 6 3 3 6 3 4
22 22 22 20 19 17 14 12 8 5 5 3 2 4 2 3 3 2 1 1 1 2 1 0 1 1 1 2 3 3 2 6 4 2 2 4 5 5 6 9 5 10 13 5 9 6 6
22 22 22 22 20 18 15 13 11 8 8 3 4 3 1 1 1 4 2 4 5 1 1 2 2 0 1 3 4 6 1 3 6 2 3 1 4 2 4 9 8 9 14 8 7 4 8
21 21 22 22 20 19 15 14 12 10 7 2 1 2 4 2 2 4 5 5 4 1 1 1 3 2 3 6 4 6 8 7 10 5 4 3 2 3 5 3 7 6 1 4 6 9 3
21 22 22 22 21 18 17 15 13 12 7 2 3 3 4 4 3 5 2 4 4 2 2 0 0 3 2 4 6 5 7 12 10 10 9 6 7 5 5 1 3 2 11 12 16 9 10
21 23 24 22 20 19 18 16 14 12 11 3 3 3 4 4 3 1 4 2 2 4 2 2 1 2 3 5 5 7 5 5 1 2 5 8 4 2 3 3 6 7 4 5 5 6 10
23 24 24 22 21 20 18 15 13 12 12 3 2 2 3 4 6 3 4 3 3 1 4 3 2 2 2 2 2 2 4 2 5 4 6 6 3 3 1 3 6 3 6 6 4 5 11
23 24 24 24 21 20 19 17 14 13 13 4 2 2 4 2 3 3 4 5 5 3 2 3 3 3 1 2 2 4 4 2 3 3 3 3 2 5 4 4 2 8 14 9 5 3 12
26 26 24 23 22 22 20 16 15 14 12 4 1 2 3 2 2 1 1 4 2 3 4 2 2 1 0 1 2 3 3 2 2 3 1 2 2 4 2 3 8 13 5 7 6 9 13
25 26 25 23 22 21 18 17 16 14 13 5 2 1 0 2 1 2 3 4 3 4 1 3 1 2 4 2 2 2 3 1 3 4 5 3 2 2 2 1 7 10 10 5 6 9 10
Wind_Direction
17 16 10 8 5 4 2 360 356 350 349 344 340 338 333 327 323 319 316 313 310 309 315 322 328 334 0 13 255 255 303 318 310 76 268 343 19 355 286 290 309 212 258 258 254 264 247
12 14 7 6 6 5 1 359 355 349 343 340 337 334 329 323 318 316 310 305 305 305 310 321 323 325 44 349 235 276 323 318 226 189 232 203 218 217 269 257 199 256 283 280 279 257 228
357 1 3 6 9 5 360 359 356 349 344 339 337 334 330 326 322 316 310 305 300 300 308 313 315 8 56 240 316 331 309 260 230 197 250 228 178 126 276 288 249 271 305 316 288 290 220
345 349 1 5 5 3 1 359 354 352 344 341 337 335 331 327 322 317 312 302 296 290 294 297 263 105 245 257 309 328 321 319 284 268 208 235 155 198 204 293 330 325 49 352 310 354 292
318 341 356 358 352 355 357 0 353 348 345 344 341 333 329 324 320 314 308 303 297 276 185 165 154 89 285 312 356 304 292 308 320 353 2 110 77 25 357 347 354 10 287 320 316 37 320
277 320 344 345 346 353 352 351 349 351 352 344 336 331 326 324 322 320 320 303 44 116 80 171 243 28 312 306 300 323 289 343 330 339 21 42 43 30 15 37 317 294 314 305 289 317 359
254 280 312 334 333 346 349 349 346 348 352 341 339 335 331 328 327 325 350 11 16 344 29 256 286 257 301 297 286 316 336 352 23 54 9 348 42 330 293 236 245 254 260 281 295 272 359
251 261 279 298 322 334 342 344 344 345 346 342 339 337 332 329 328 328 42 65 95 209 314 284 254 275 253 73 321 305 12 46 47 335 342 8 311 275 287 262 319 291 298 314 298 269 318
243 255 263 288 313 323 329 337 345 344 341 339 342 339 336 328 326 32 79 67 317 158 260 303 232 257 266 117 279 277 36 94 51 350 20 213 266 328 351 327 352 328 246 292 261 315 43
237 245 261 268 283 307 321 327 335 340 338 340 343 344 342 328 55 319 39 328 329 214 48 279 290 297 2 82 288 217 60 76 10 328 334 249 303 335 327 320 43 311 172 288 301 17 339
234 238 247 262 273 289 306 322 333 337 334 340 345 345 340 16 259 56 307 313 332 44 25 284 287 283 313 209 307 7 338 55 306 293 66 277 336 349 336 299 360 254 331 303 321 64 31
222 235 236 245 263 274 291 319 324 328 330 337 341 340 340 12 34 3 335 339 33 45 260 341 304 340 356 5 317 316 11 28 171 359 337 260 289 293 271 311 282 292 0 42 41 44 38
212 224 233 240 243 269 284 305 318 324 330 330 333 327 336 7 309 321 5 51 31 125 316 325 327 8 341 306 330 18 9 8 32 22 354 331 318 324 357 345 354 12 29 356 9 12 244
213 211 223 232 238 250 278 297 308 321 325 327 328 340 345 95 336 5 51 52 170 237 247 357 359 323 300 356 343 336 17 2 43 66 23 23 334 10 344 55 302 338 65 116 320 344 294
207 210 214 223 226 239 253 282 304 318 324 328 339 354 24 324 350 51 78 62 217 198 317 353 337 355 328 344 331 9 42 236 190 77 60 8 286 314 336 352 80 328 32 196 102 313 348
198 206 210 215 223 233 241 262 289 313 322 337 31 18 309 319 25 64 69 231 256 293 351 38 71 41 316 313 358 18 347 337 102 55 118 238 304 305 293 21 17 85 197 20 10 25 335
201 204 199 213 217 217 220 245 278 306 330 335 38 18 267 349 52 52 165 237 297 307 59 152 191 293 282 304 337 306 306 355 280 201 61 122 121 290 354 38 314 346 27 50 108 98 86
204 197 198 204 200 204 209 228 254 307 347 67 86 339 307 23 41 85 188 216 288 283 313 206 151 221 229 338 299 288 290 240 19 156 13 2 146 296 268 289 258 267 86 100 93 305 88
206 199 190 195 190 188 205 216 236 301 51 108 141 261 334 78 202 263 281 280 252 289 292 259 241 179 104 236 300 233 277 336 32 356 4 178 324 334 338 1 11 89 209 110 95 69 211
206 200 189 189 189 185 194 202 217 222 97 90 82 328 330 39 95 174 218 252 262 181 289 299 300 51 40 312 199 286 298 338 331 221 188 144 177 177 204 261 238 298 255 189 136 164 221
207 198 187 185 190 182 186 198 187 193 116 93 53 242 178 279 286 198 246 279 269 279 156 57 331 146 148 291 308 261 286 328 303 321 118 142 245 170 249 273 262 266 271 223 190 204 211
202 195 188 187 188 180 184 185 187 170 124 97 162 158 25 230 270 163 218 242 211 293 147 265 215 69 245 220 208 273 320 197 253 333 141 25 271 115 253 253 273 272 283 250 222 220 243
199 195 190 184 184 179 179 185 182 163 128 145 197 354 112 268 153 117 229 205 194 116 6 22 136 11 247 245 230 224 217 221 235 204 162 191 197 13 286 353 309 299 90 114 100 51 326
195 191 189 184 182 180 179 184 178 165 168 136 186 114 109 251 194 192 217 185 179 226 229 276 9 199 257 308 298 281 257 256 254 239 181 196 151 165 248 14 281 35 54 96 103 72 36
197 192 185 182 179 179 179 181 182 165 169 131 178 148 141 235 189 211 173 204 68 356 297 236 296 204 351 19 345 336 328 330 327 67 210 196 130 220 216 211 302 142 36 20 48 82 32
194 189 184 176 177 177 177 178 177 173 170 117 196 146 114 147 235 139 132 152 156 168 319 241 13 317 75 88 84 243 266 290 300 346 33 105 91 139 152 222 241 34 327 316 260 187 10
185 182 178 177 175 174 176 177 172 179 170 148 182 171 107 176 248 148 168 172 144 128 186 299 338 357 51 183 225 220 252 238 258 260 183 101 98 216 240 263 272 336 312 304 197 348 339
185 181 177 175 174 174 174 174 172 176 167 133 164 96 128 158 275 298 87 131 95 121 158 191 320 96 60 227 248 261 223 254 310 286 274 152 169 214 186 268 261 345 22 42 334 327 336
182 178 173 171 171 170 168 173 180 174 169 134 120 41 100 106 112 33 43 7 355 9 96 220 138 149 216 217 198 284 280 276 183 264 15 218 262 203 202 46 90 53 86 41 340 325 334